Date String (YYYY-MM-DD hh:mm:ss) UTC,Instrument flags,Ambient pressure (hPa),Sample flow (lpm),Bypass flow (lpm),Sample temperature (°C),Ambient temperature (°C),ASC tube jacket temperature (°C),LED temperature (°C),Box temperature (°C),Sample RH (%),Span deviation,Mass concentration (μg/m³),Mass concentration (μg/m³),Mass concentration (μg/m³)
DateTimeUTC,F1_M11,P_M11,Q1_M11,Q2_M11,T1_M11,T2_M11,T3_M11,T4_M11,T5_M11,U1_M11,ZSPAN_M11,X0_M11,X2_M11,X1_M11
2022-02-19 20:00:00,,0823.6,4.99,0.00,25.3,24.6,00.0,34.1,27.2,11.4,0000.0,0005.47,0002.48,0002.24
2022-02-19 20:01:00,,0823.7,4.99,0.00,25.4,24.7,00.0,34.1,27.3,12.4,0000.0,0006.09,0002.96,0002.65
2022-02-19 20:02:00,,0823.7,5.00,0.00,25.4,24.7,00.0,34.2,27.3,12.4,0000.0,0006.64,0003.31,0003.12
2022-02-19 20:03:00,,0823.6,5.00,0.00,25.4,24.8,00.0,34.2,27.3,12.6,0000.0,0007.29,0003.64,0003.44
2022-02-19 20:04:00,,0823.6,5.00,0.00,25.4,24.8,00.0,34.2,27.3,12.3,0000.0,0007.71,0003.94,0003.71
2022-02-19 20:05:00,,0823.5,5.00,0.00,25.4,24.8,00.0,34.2,27.4,12.3,0000.0,0007.99,0004.19,0003.93
2022-02-19 20:06:00,,0823.4,5.00,0.00,25.5,24.8,00.0,34.2,27.4,12.2,0000.0,0007.72,0004.47,0004.20
2022-02-19 20:07:00,,0823.4,5.01,0.00,25.5,24.9,00.0,34.3,27.4,12.2,0000.0,0007.53,0004.76,0004.46
2022-02-19 20:08:00,,0823.4,5.01,0.00,25.5,24.9,00.0,34.3,27.4,11.9,0000.0,0008.70,0005.04,0004.71
2022-02-19 20:09:00,,0823.3,5.00,0.00,25.5,24.9,00.0,34.3,27.5,12.1,0000.0,0009.07,0005.33,0004.99
2022-02-19 20:10:00,,0823.3,5.00,0.00,25.6,24.9,00.0,34.3,27.5,10.5,0000.0,0009.24,0005.49,0005.14
2022-02-19 20:11:00,,0823.3,5.00,0.00,25.6,24.9,00.0,34.4,27.5,10.7,0000.0,0009.27,0005.53,0005.17
2022-02-19 20:12:00,,0823.3,5.01,0.00,25.6,24.9,00.0,34.4,27.5,10.9,0000.0,0009.15,0005.47,0005.14
2022-02-19 20:13:00,,0823.3,5.02,0.00,25.6,25.0,00.0,34.4,27.6,10.1,0000.0,0009.14,0005.32,0005.00
2022-02-19 20:14:00,,0823.3,4.99,0.00,25.7,25.0,00.0,34.4,27.6,09.8,0000.0,0009.11,0005.11,0004.82
2022-02-19 20:15:00,,0823.3,5.00,0.00,25.7,25.0,00.0,34.5,27.6,10.1,0000.0,0009.23,0004.92,0004.67
2022-02-19 20:16:00,,0823.2,4.99,0.00,25.7,25.0,00.0,34.5,27.6,09.7,0000.0,0009.40,0004.71,0004.46
2022-02-19 20:17:00,,0823.1,5.00,0.00,25.7,25.1,00.0,34.5,27.7,10.3,0000.0,0009.50,0004.52,0004.27
2022-02-19 20:18:00,,0823.1,5.01,0.00,25.8,25.1,00.0,34.5,27.7,09.5,0000.0,0009.19,0004.28,0004.05
2022-02-19 20:19:00,,0823.1,5.00,0.00,25.8,25.1,00.0,34.5,27.7,09.7,0000.0,0008.02,0004.01,0003.81
2022-02-19 20:20:00,,0823.0,4.99,0.00,25.8,25.1,00.0,34.6,27.7,09.1,0000.0,0007.66,0003.68,0003.51
2022-02-19 20:21:00,,0823.1,5.00,0.00,25.8,25.1,00.0,34.6,27.7,10.3,0000.0,0007.69,0003.51,0003.33
2022-02-19 20:22:00,,0823.0,5.02,0.00,25.8,25.1,00.0,34.6,27.7,09.9,0000.0,0007.85,0003.39,0003.22
2022-02-19 20:23:00,,0822.9,4.98,0.00,25.9,25.1,00.0,34.6,27.8,10.0,0000.0,0007.72,0003.24,0003.03
2022-02-19 20:24:00,,0822.9,5.01,0.00,25.9,25.2,00.0,34.7,27.8,09.9,0000.0,0007.46,0003.11,0002.81
2022-02-19 20:25:00,,0822.8,5.00,0.00,25.9,25.1,00.0,34.7,27.8,09.4,0000.0,0007.06,0002.90,0002.58
2022-02-19 20:26:00,,0823.0,5.00,0.00,25.9,25.1,00.0,34.7,27.8,10.0,0000.0,0006.11,0002.60,0002.29
2022-02-19 20:27:00,,0822.9,5.01,0.00,25.9,25.1,00.0,34.7,27.8,10.1,0000.0,0005.37,0002.53,0002.20
2022-02-19 20:28:00,,0822.9,4.98,0.00,25.9,25.1,00.0,34.7,27.8,10.5,0000.0,0004.88,0002.51,0002.15
2022-02-19 20:29:00,,0822.9,5.02,0.00,25.9,25.1,00.0,34.8,27.8,09.6,0000.0,0004.46,0002.45,0002.08
2022-02-19 20:30:00,,0822.7,5.00,0.00,25.9,25.1,00.0,34.8,27.7,09.2,0000.0,0004.61,0002.47,0002.07
2022-02-19 20:31:00,,0822.7,4.99,0.00,25.9,25.1,00.0,34.8,27.7,09.4,0000.0,0004.73,0002.53,0002.13
2022-02-19 20:32:00,,0822.7,4.99,0.00,25.9,25.1,00.0,34.8,27.7,09.5,0000.0,0004.27,0002.52,0002.14
2022-02-19 20:33:00,,0822.7,5.02,0.00,25.9,25.1,00.0,34.8,27.7,09.9,0000.0,0003.85,0002.57,0002.17
2022-02-19 20:34:00,,0822.7,5.00,0.00,25.9,25.1,00.0,34.8,27.7,09.9,0000.0,0003.85,0002.61,0002.23
2022-02-19 20:35:00,,0822.7,5.00,0.00,25.9,25.1,00.0,34.8,27.7,09.6,0000.0,0004.00,0002.67,0002.29
2022-02-19 20:36:00,,0822.7,4.99,0.00,25.9,25.1,00.0,34.8,27.7,09.0,0000.0,0004.12,0002.81,0002.41
2022-02-19 20:37:00,,0822.7,4.99,0.00,25.9,25.1,00.0,34.8,27.7,09.2,0000.0,0004.41,0003.01,0002.55
2022-02-19 20:38:00,,0822.6,5.01,0.00,25.9,25.2,00.0,34.8,27.7,09.1,0000.0,0004.47,0003.05,0002.58
2022-02-19 20:39:00,,0822.6,5.01,0.00,25.9,25.2,00.0,34.8,27.7,09.6,0000.0,0004.33,0002.94,0002.49
2022-02-19 20:40:00,,0822.5,4.99,0.00,25.9,25.2,00.0,34.8,27.8,09.5,0000.0,0004.30,0002.87,0002.42
2022-02-19 20:41:00,,0822.5,4.99,0.00,26.0,25.2,00.0,34.8,27.8,09.6,0000.0,0004.24,0002.86,0002.40
2022-02-19 20:42:00,,0822.5,5.00,0.00,26.0,25.3,00.0,34.8,27.9,10.4,0000.0,0004.16,0002.85,0002.39
2022-02-19 20:43:00,,0822.6,5.00,0.00,26.0,25.3,00.0,34.9,27.9,10.3,0000.0,0004.14,0002.84,0002.39
2022-02-19 20:44:00,,0822.6,5.01,0.00,26.0,25.3,00.0,34.9,27.9,09.5,0000.0,0004.02,0002.80,0002.38
2022-02-19 20:45:00,,0822.5,5.00,0.00,26.0,25.4,00.0,34.9,27.9,09.5,0000.0,0004.08,0002.81,0002.37
2022-02-19 20:46:00,,0822.5,5.00,0.00,26.1,25.4,00.0,34.9,27.9,09.1,0000.0,0004.03,0002.83,0002.37
2022-02-19 20:47:00,,0822.5,5.00,0.00,26.1,25.4,00.0,34.9,28.0,09.3,0000.0,0004.06,0002.85,0002.41
2022-02-19 20:48:00,,0822.5,5.00,0.00,26.1,25.4,00.0,34.9,28.0,12.1,0000.0,0004.68,0003.33,0003.02
2022-02-19 20:49:00,,0822.5,5.02,0.00,26.1,25.4,00.0,35.0,28.0,12.0,0000.0,0005.68,0003.88,0003.60
2022-02-19 20:50:00,,0822.4,5.00,0.00,26.1,25.4,00.0,35.0,28.0,12.0,0000.0,0006.57,0004.39,0004.10
2022-02-19 20:51:00,,0822.5,4.99,0.00,26.1,25.4,00.0,35.0,28.0,11.6,0000.0,0007.35,0004.85,0004.55
2022-02-19 20:52:00,,0822.5,4.99,0.00,26.1,25.3,00.0,35.0,27.9,11.6,0000.0,0007.94,0005.37,0005.02
2022-02-19 20:53:00,,0822.5,5.00,0.00,26.1,25.3,00.0,35.0,27.9,11.6,0000.0,0008.71,0005.82,0005.45
2022-02-19 20:54:00,,0822.5,5.01,0.00,26.0,25.3,00.0,35.0,27.9,12.0,0000.0,0009.88,0006.28,0005.88
2022-02-19 20:55:00,,0822.6,5.00,0.00,26.0,25.3,00.0,35.0,27.9,11.8,0000.0,0010.45,0006.77,0006.30
2022-02-19 20:56:00,,0822.5,5.00,0.00,26.0,25.3,00.0,35.0,27.9,11.7,0000.0,0010.96,0007.21,0006.71
2022-02-19 20:57:00,,0822.4,5.01,0.00,26.1,25.3,00.0,35.0,27.9,11.9,0000.0,0011.56,0007.68,0007.15
2022-02-19 20:58:00,,0822.4,5.00,0.00,26.1,25.4,00.0,35.0,27.9,11.9,0000.0,0012.54,0008.17,0007.60
2022-02-19 20:59:00,,0822.5,4.99,0.00,26.1,25.4,00.0,35.0,28.0,12.0,0000.0,0012.99,0008.30,0007.72
